| time (UTC) | temp F | wind direction | speed knots | gust knots | rain 1hr in | rain 24hr in | rain mn in | humidity % | barometer mb |
| 20260503054837 | 33 | 325 | 1.7 | 5.2 | 0.00 | 0.00 | 0.00 | 77 | 1015.4 |
| 20260503054333 | 33 | 4 | 1.7 | 2.6 | 0.00 | 0.00 | 0.00 | 78 | 1015.6 |
| 20260503053831 | 33 | 11 | 3.5 | 5.2 | 0.00 | 0.00 | 0.00 | 78 | 1015.7 |
| 20260503053329 | 33 | 13 | 1.7 | 3.5 | 0.00 | 0.00 | 0.00 | 78 | 1015.5 |
| 20260503052825 | 33 | 23 | 1.7 | 6.1 | 0.00 | 0.00 | 0.00 | 77 | 1015.5 |
| 20260503052322 | 33 | 31 | 3.5 | 3.5 | 0.00 | 0.00 | 0.00 | 77 | 1015.5 |
| 20260503051818 | 33 | 38 | 3.5 | 5.2 | 0.00 | 0.00 | 0.00 | 78 | 1015.5 |
| 20260503051315 | 34 | 33 | 2.6 | 5.2 | 0.00 | 0.00 | 0.00 | 78 | 1015.5 |
| 20260503050812 | 34 | 21 | 3.5 | 6.1 | 0.00 | 0.00 | 0.00 | 78 | 1015.6 |
| 20260503050308 | 33 | 351 | 3.5 | 7.0 | 0.00 | 0.00 | 0.00 | 78 | 1015.5 |
| 20260503045806 | 34 | 5 | 1.7 | 6.1 | 0.00 | 0.00 | 0.00 | 78 | 1015.4 |
| 20260503045305 | 34 | 358 | 1.7 | 5.2 | 0.00 | 0.00 | 0.00 | 78 | 1015.5 |
| 20260503044759 | 34 | 356 | 3.5 | 7.0 | 0.00 | 0.00 | 0.00 | 78 | 1015.4 |
| 20260503044256 | 34 | 344 | 4.3 | 6.1 | 0.00 | 0.00 | 0.00 | 78 | 1015.3 |
| 20260503043754 | 34 | 11 | 1.7 | 3.5 | 0.00 | 0.00 | 0.00 | 78 | 1015.3 |
| 20260503043251 | 34 | 344 | 6.1 | 7.8 | 0.00 | 0.00 | 0.00 | 78 | 1015.3 |
| 20260503042746 | 34 | 349 | 1.7 | 2.6 | 0.00 | 0.00 | 0.00 | 78 | 1015.3 |
| 20260503042243 | 35 | 29 | 3.5 | 3.5 | 0.00 | 0.00 | 0.00 | 78 | 1015.3 |
| 20260503041739 | 34 | 349 | 1.7 | 5.2 | 0.00 | 0.00 | 0.00 | 78 | 1015.4 |
| 20260503041237 | 35 | 328 | 5.2 | 7.0 | 0.00 | 0.00 | 0.00 | 77 | 1015.2 |
| 20260503040735 | 35 | 28 | 5.2 | 7.0 | 0.00 | 0.00 | 0.00 | 77 | 1015.3 |
| 20260503040232 | 35 | 338 | 3.5 | 3.5 | 0.00 | 0.00 | 0.00 | 77 | 1015.3 |
| 20260503035729 | 35 | 322 | 2.6 | 5.2 | 0.00 | 0.00 | 0.00 | 76 | 1015.2 |
| 20260503035221 | 35 | 340 | 2.6 | 3.5 | 0.00 | 0.00 | 0.00 | 76 | 1015.2 |
| 20260503034718 | 36 | 356 | 3.5 | 5.2 | 0.00 | 0.00 | 0.00 | 75 | 1015.2 |
| 20260503034215 | 36 | 349 | 4.3 | 6.1 | 0.00 | 0.00 | 0.00 | 75 | 1015.3 |
| 20260503033713 | 35 | 349 | 3.5 | 7.0 | 0.00 | 0.00 | 0.00 | 75 | 1015.0 |
| 20260503033210 | 36 | 356 | 1.7 | 3.5 | 0.00 | 0.00 | 0.00 | 75 | 1015.0 |
| 20260503032708 | 36 | 43 | 3.5 | 6.1 | 0.00 | 0.00 | 0.00 | 74 | 1015.1 |
| 20260503032206 | 36 | 308 | 3.5 | 6.1 | 0.00 | 0.00 | 0.00 | 74 | 1015.2 |
| 20260503031703 | 36 | 15 | 4.3 | 5.2 | 0.00 | 0.00 | 0.00 | 74 | 1014.8 |
| 20260503031201 | 36 | 335 | 3.5 | 7.0 | 0.00 | 0.00 | 0.00 | 74 | 1015.0 |
| 20260503030657 | 36 | 328 | 2.6 | 5.2 | 0.00 | 0.00 | 0.00 | 75 | 1015.0 |
| 20260503030154 | 36 | 5 | 1.7 | 6.1 | 0.00 | 0.00 | 0.00 | 74 | 1015.0 |
| 20260503025651 | 36 | 309 | 1.7 | 3.5 | 0.00 | 0.00 | 0.00 | 74 | 1015.0 |
| 20260503025149 | 36 | 2 | 4.3 | 6.1 | 0.00 | 0.00 | 0.00 | 74 | 1015.1 |
| 20260503024644 | 36 | 11 | 2.6 | 3.5 | 0.00 | 0.00 | 0.00 | 74 | 1015.0 |
| 20260503024142 | 36 | 314 | 7.0 | 7.8 | 0.00 | 0.00 | 0.00 | 74 | 1015.1 |
| 20260503023639 | 36 | 332 | 3.5 | 5.2 | 0.00 | 0.00 | 0.00 | 73 | 1015.2 |
| 20260503023136 | 37 | 321 | 3.5 | 6.1 | 0.00 | 0.00 | 0.00 | 73 | 1015.3 |
| 20260503022631 | 37 | 343 | 3.5 | 5.2 | 0.00 | 0.00 | 0.00 | 73 | 1015.2 |
| 20260503022126 | 37 | 323 | 4.3 | 6.1 | 0.00 | 0.00 | 0.00 | 73 | 1015.1 |
| 20260503021623 | 37 | 319 | 4.3 | 6.1 | 0.00 | 0.00 | 0.00 | 73 | 1015.3 |
| 20260503021120 | 37 | 343 | 3.5 | 6.1 | 0.00 | 0.00 | 0.00 | 72 | 1015.1 |
| 20260503020617 | 37 | 333 | 3.5 | 5.2 | 0.00 | 0.00 | 0.00 | 72 | 1015.0 |
| 20260503020114 | 37 | 353 | 3.5 | 6.1 | 0.00 | 0.00 | 0.00 | 72 | 1015.0 |
| 20260503015611 | 37 | 296 | 4.3 | 6.1 | 0.00 | 0.00 | 0.00 | 73 | 1015.0 |
| 20260503015108 | 37 | 308 | 1.7 | 5.2 | 0.00 | 0.00 | 0.00 | 72 | 1015.1 |
| 20260503014603 | 37 | 329 | 1.7 | 3.5 | 0.00 | 0.00 | 0.00 | 72 | 1015.1 |
| 20260503014102 | 37 | 347 | 2.6 | 6.1 | 0.00 | 0.00 | 0.00 | 71 | 1015.0 |
| 20260503013558 | 37 | 334 | 5.2 | 7.0 | 0.00 | 0.00 | 0.00 | 71 | 1015.0 |
| 20260503013056 | 37 | 330 | 4.3 | 5.2 | 0.00 | 0.00 | 0.00 | 72 | 1015.0 |
| 20260503012554 | 37 | 8 | 3.5 | 5.2 | 0.00 | 0.00 | 0.00 | 71 | 1015.0 |
| 20260503012050 | 37 | 1 | 2.6 | 5.2 | 0.00 | 0.00 | 0.00 | 71 | 1014.7 |
| 20260503011546 | 37 | 314 | 1.7 | 3.5 | 0.00 | 0.00 | 0.00 | 71 | 1014.8 |
| 20260503011044 | 38 | 320 | 2.6 | 3.5 | 0.00 | 0.00 | 0.00 | 70 | 1014.8 |
| 20260503010540 | 38 | 352 | 3.5 | 6.1 | 0.00 | 0.00 | 0.00 | 69 | 1014.7 |
| 20260503010038 | 38 | 347 | 2.6 | 3.5 | 0.00 | 0.00 | 0.00 | 69 | 1014.5 |
| 20260503005534 | 38 | 302 | 3.5 | 5.2 | 0.00 | 0.00 | 0.00 | 70 | 1014.6 |
| 20260503005032 | 38 | 343 | 1.7 | 3.5 | 0.00 | 0.00 | 0.00 | 69 | 1014.5 |
| 20260503004528 | 38 | 30 | 2.6 | 6.1 | 0.00 | 0.00 | 0.00 | 68 | 1014.4 |
| 20260503004026 | 38 | 46 | 3.5 | 6.1 | 0.00 | 0.00 | 0.00 | 68 | 1014.5 |
| 20260503003522 | 39 | 17 | 3.5 | 3.5 | 0.00 | 0.00 | 0.00 | 67 | 1014.7 |
| 20260503003020 | 39 | 356 | 5.2 | 8.7 | 0.00 | 0.00 | 0.00 | 66 | 1014.5 |
| 20260503002517 | 39 | 2 | 2.6 | 5.2 | 0.00 | 0.00 | 0.00 | 66 | 1014.5 |
| 20260503002013 | 40 | 353 | 3.5 | 5.2 | 0.00 | 0.00 | 0.00 | 65 | 1014.4 |
| 20260503001510 | 40 | 353 | 5.2 | 7.8 | 0.00 | 0.00 | 0.00 | 65 | 1014.4 |
| 20260503001007 | 40 | 15 | 3.5 | 6.1 | 0.00 | 0.00 | 0.00 | 65 | 1014.4 |
| 20260503000505 | 40 | 28 | 3.5 | 5.2 | 0.00 | 0.00 | 0.00 | 63 | 1014.3 |
| 20260503000002 | 41 | 355 | 3.5 | 3.5 | 0.00 | 0.00 | 0.00 | 62 | 1014.3 |
| 20260502235458 | 41 | 354 | 5.2 | 7.0 | 0.00 | 0.00 | 0.00 | 62 | 1014.1 |
| 20260502234955 | 41 | 296 | 3.5 | 5.2 | 0.00 | 0.00 | 0.00 | 62 | 1014.3 |
| 20260502234452 | 41 | 26 | 4.3 | 7.0 | 0.00 | 0.00 | 0.00 | 61 | 1014.3 |
| 20260502233950 | 41 | 18 | 5.2 | 7.0 | 0.00 | 0.00 | 0.00 | 61 | 1014.2 |
| 20260502233450 | 41 | 7 | 3.5 | 6.1 | 0.00 | 0.00 | 0.00 | 61 | 1014.1 |
| 20260502232947 | 41 | 0 | 2.6 | 7.8 | 0.00 | 0.00 | 0.00 | 62 | 1014.2 |
| 20260502232443 | 42 | 326 | 6.1 | 7.0 | 0.00 | 0.00 | 0.00 | 60 | 1014.1 |
| 20260502231940 | 42 | 35 | 0.9 | 3.5 | 0.00 | 0.00 | 0.00 | 60 | 1013.9 |
| 20260502231437 | 43 | 346 | 2.6 | 7.8 | 0.00 | 0.00 | 0.00 | 57 | 1014.0 |
| 20260502230936 | 42 | 355 | 4.3 | 9.6 | 0.00 | 0.00 | 0.00 | 59 | 1014.0 |
| 20260502230433 | 42 | 336 | 4.3 | 5.2 | 0.00 | 0.00 | 0.00 | 62 | 1014.1 |
| 20260502225931 | 42 | 311 | 1.7 | 7.0 | 0.00 | 0.00 | 0.00 | 63 | 1014.2 |
| 20260502225427 | 41 | 353 | 7.0 | 9.6 | 0.00 | 0.00 | 0.00 | 60 | 1013.9 |
| 20260502224924 | 42 | 46 | 7.0 | 8.7 | 0.00 | 0.00 | 0.00 | 60 | 1014.0 |
| 20260502224420 | 43 | 332 | 3.5 | 7.0 | 0.00 | 0.00 | 0.00 | 60 | 1014.1 |
| 20260502223917 | 43 | 26 | 4.3 | 7.8 | 0.00 | 0.00 | 0.00 | 59 | 1013.7 |
| 20260502223415 | 44 | 25 | 5.2 | 11.3 | 0.00 | 0.00 | 0.00 | 59 | 1014.0 |
| 20260502222913 | 42 | 1 | 6.1 | 12.2 | 0.00 | 0.00 | 0.00 | 60 | 1013.9 |
| 20260502222410 | 42 | 11 | 2.6 | 7.8 | 0.00 | 0.00 | 0.00 | 62 | 1014.0 |
| 20260502221910 | 42 | 321 | 3.5 | 8.7 | 0.00 | 0.00 | 0.00 | 60 | 1014.1 |
| 20260502221408 | 44 | 14 | 4.3 | 8.7 | 0.00 | 0.00 | 0.00 | 59 | 1013.7 |
| 20260502220905 | 45 | 7 | 3.5 | 6.1 | 0.00 | 0.00 | 0.00 | 59 | 1013.9 |
| 20260502220400 | 44 | 346 | 5.2 | 8.7 | 0.00 | 0.00 | 0.00 | 60 | 1013.9 |
| 20260502215857 | 42 | 314 | 2.6 | 9.6 | 0.00 | 0.00 | 0.00 | 61 | 1014.0 |
| 20260502215355 | 42 | 347 | 1.7 | 5.2 | 0.00 | 0.00 | 0.00 | 62 | 1013.6 |
| 20260502214851 | 42 | 17 | 6.1 | 9.6 | 0.00 | 0.00 | 0.00 | 62 | 1013.9 |
| 20260502214348 | 42 | 347 | 5.2 | 7.0 | 0.00 | 0.00 | 0.00 | 61 | 1013.6 |
| 20260502213845 | 42 | 42 | 4.3 | 7.8 | 0.00 | 0.00 | 0.00 | 62 | 1013.6 |
| 20260502213342 | 43 | 39 | 1.7 | 6.1 | 0.00 | 0.00 | 0.00 | 63 | 1013.6 |
| 20260502212841 | 43 | 72 | 1.7 | 5.2 | 0.00 | 0.00 | 0.00 | 62 | 1013.7 |
| 20260502212339 | 44 | 68 | 2.6 | 8.7 | 0.00 | 0.00 | 0.00 | 60 | 1013.5 |
| 20260502211836 | 44 | 348 | 6.1 | 7.8 | 0.00 | 0.00 | 0.00 | 60 | 1013.5 |
| 20260502211331 | 43 | 42 | 5.2 | 8.7 | 0.00 | 0.00 | 0.00 | 59 | 1013.5 |
| 20260502210829 | 42 | 336 | 2.6 | 7.8 | 0.00 | 0.00 | 0.00 | 61 | 1013.5 |
| 20260502210326 | 43 | 341 | 4.3 | 7.0 | 0.00 | 0.00 | 0.00 | 60 | 1013.4 |
| 20260502205823 | 43 | 338 | 6.1 | 11.3 | 0.00 | 0.00 | 0.00 | 58 | 1013.5 |
| 20260502205319 | 44 | 333 | 5.2 | 13.0 | 0.00 | 0.00 | 0.00 | 59 | 1013.4 |
| 20260502204817 | 45 | 347 | 5.2 | 6.1 | 0.00 | 0.00 | 0.00 | 59 | 1013.9 |
| 20260502204314 | 44 | 355 | 5.2 | 9.6 | 0.00 | 0.00 | 0.00 | 58 | 1013.7 |
| 20260502203811 | 45 | 316 | 5.2 | 7.8 | 0.00 | 0.00 | 0.00 | 59 | 1013.7 |
| 20260502203309 | 47 | 327 | 3.5 | 7.0 | 0.00 | 0.00 | 0.00 | 57 | 1013.6 |
| 20260502202808 | 46 | 58 | 4.3 | 7.8 | 0.00 | 0.00 | 0.00 | 63 | 1013.6 |
| 20260502202307 | 45 | 24 | 5.2 | 7.8 | 0.00 | 0.00 | 0.00 | 61 | 1013.6 |
| 20260502201804 | 44 | 42 | 8.7 | 11.3 | 0.00 | 0.00 | 0.00 | 62 | 1013.7 |
| 20260502201300 | 42 | 21 | 7.8 | 12.2 | 0.00 | 0.00 | 0.00 | 63 | 1013.9 |
| 20260502200756 | 42 | 53 | 7.0 | 11.3 | 0.00 | 0.00 | 0.00 | 64 | 1013.9 |
| 20260502200252 | 42 | 42 | 5.2 | 7.8 | 0.00 | 0.00 | 0.00 | 63 | 1014.0 |
| 20260502195751 | 42 | 20 | 7.8 | 11.3 | 0.00 | 0.00 | 0.00 | 63 | 1013.9 |
| 20260502195247 | 42 | 344 | 9.6 | 11.3 | 0.00 | 0.00 | 0.00 | 62 | 1014.0 |
| 20260502194744 | 43 | 26 | 5.2 | 7.8 | 0.00 | 0.00 | 0.00 | 61 | 1013.9 |
| 20260502194241 | 45 | 25 | 6.1 | 11.3 | 0.00 | 0.00 | 0.00 | 61 | 1013.9 |
| 20260502193736 | 44 | 325 | 7.0 | 11.3 | 0.00 | 0.00 | 0.00 | 60 | 1013.7 |
| 20260502193234 | 43 | 287 | 5.2 | 7.0 | 0.00 | 0.00 | 0.00 | 61 | 1014.0 |
| 20260502192734 | 42 | 330 | 3.5 | 12.2 | 0.00 | 0.00 | 0.00 | 61 | 1014.1 |
| 20260502192232 | 42 | 10 | 7.8 | 13.9 | 0.00 | 0.00 | 0.00 | 60 | 1014.0 |
| 20260502191728 | 42 | 300 | 7.0 | 12.2 | 0.00 | 0.00 | 0.00 | 61 | 1014.1 |
| 20260502191226 | 44 | 348 | 7.8 | 13.9 | 0.00 | 0.00 | 0.00 | 59 | 1013.9 |
| 20260502190723 | 44 | 294 | 2.6 | 8.7 | 0.00 | 0.00 | 0.00 | 60 | 1013.7 |
| 20260502190221 | 44 | 342 | 7.0 | 13.9 | 0.00 | 0.00 | 0.00 | 58 | 1014.1 |
| 20260502185721 | 44 | 0 | 7.8 | 12.2 | 0.00 | 0.00 | 0.00 | 59 | 1014.1 |
| 20260502185218 | 44 | 343 | 6.1 | 14.8 | 0.00 | 0.00 | 0.00 | 59 | 1014.1 |
| 20260502184714 | 45 | 308 | 8.7 | 12.2 | 0.00 | 0.00 | 0.00 | 59 | 1014.3 |
| 20260502184209 | 47 | 310 | 7.8 | 8.7 | 0.00 | 0.00 | 0.00 | 59 | 1014.2 |
| 20260502183706 | 45 | 271 | 6.1 | 13.9 | 0.00 | 0.00 | 0.00 | 58 | 1014.1 |
| 20260502183202 | 45 | 295 | 8.7 | 11.3 | 0.00 | 0.00 | 0.00 | 58 | 1014.2 |
| 20260502182658 | 45 | 36 | 8.7 | 13.0 | 0.00 | 0.00 | 0.00 | 55 | 1014.1 |
| 20260502182153 | 46 | 295 | 5.2 | 7.8 | 0.00 | 0.00 | 0.00 | 58 | 1014.1 |
| 20260502181651 | 45 | 82 | 5.2 | 12.2 | 0.00 | 0.00 | 0.00 | 55 | 1014.2 |
| 20260502181150 | 45 | 342 | 8.7 | 11.3 | 0.00 | 0.00 | 0.00 | 59 | 1014.2 |
| 20260502180647 | 44 | 347 | 7.8 | 13.0 | 0.00 | 0.00 | 0.00 | 57 | 1014.2 |
| 20260502180144 | 45 | 3 | 7.0 | 11.3 | 0.00 | 0.00 | 0.00 | 58 | 1014.3 |
| 20260502170108 | 44 | 327 | 5.2 | 7.8 | 0.00 | 0.00 | 0.00 | 58 | 1014.6 |
| 20260502164054 | 44 | 300 | 7.8 | 11.3 | 0.00 | 0.00 | 0.00 | 58 | 1014.6 |
| 20260502163550 | 43 | 357 | 2.6 | 9.6 | 0.00 | 0.00 | 0.00 | 61 | 1014.8 |
| 20260502163047 | 44 | 350 | 7.8 | 8.7 | 0.00 | 0.00 | 0.00 | 57 | 1014.7 |
| 20260502162544 | 44 | 53 | 7.0 | 11.3 | 0.00 | 0.00 | 0.00 | 58 | 1014.7 |
| 20260502162041 | 44 | 32 | 3.5 | 7.8 | 0.00 | 0.00 | 0.00 | 56 | 1014.8 |
| 20260502161538 | 44 | 295 | 1.7 | 7.0 | 0.00 | 0.00 | 0.00 | 60 | 1014.7 |
| 20260502161036 | 44 | 303 | 6.1 | 7.8 | 0.00 | 0.00 | 0.00 | 57 | 1014.7 |
| 20260502160534 | 44 | 318 | 6.1 | 8.7 | 0.00 | 0.00 | 0.00 | 60 | 1014.8 |
| 20260502151941 | 42 | 53 | 7.0 | 8.7 | 0.00 | 0.00 | 0.00 | 61 | 1014.8 |
| 20260502151437 | 44 | 293 | 5.2 | 7.8 | 0.00 | 0.00 | 0.00 | 61 | 1014.6 |
| 20260502150935 | 44 | 311 | 5.2 | 8.7 | 0.00 | 0.00 | 0.00 | 64 | 1014.7 |
| 20260502150432 | 45 | 345 | 7.8 | 8.7 | 0.00 | 0.00 | 0.00 | 61 | 1014.8 |
| 20260502130317 | 37 | 6 | 2.6 | 3.5 | 0.00 | 0.00 | 0.00 | 81 | 1014.8 |
| 20260502123803 | 37 | 27 | 3.5 | 7.0 | 0.00 | 0.00 | 0.00 | 83 | 1014.6 |
| 20260502123300 | 37 | 21 | 2.6 | 5.2 | 0.00 | 0.00 | 0.00 | 84 | 1014.4 |
| 20260502122756 | 37 | 82 | 3.5 | 5.2 | 0.00 | 0.00 | 0.00 | 83 | 1014.5 |
| 20260502122253 | 37 | 20 | 1.7 | 1.7 | 0.00 | 0.00 | 0.00 | 85 | 1014.8 |
| 20260502121751 | 36 | 29 | 3.5 | 3.5 | 0.00 | 0.00 | 0.00 | 85 | 1014.6 |
| 20260502121249 | 36 | 60 | 2.6 | 5.2 | 0.00 | 0.00 | 0.00 | 86 | 1014.7 |
| 20260502120745 | 36 | 23 | 1.7 | 7.0 | 0.00 | 0.00 | 0.00 | 86 | 1014.5 |
| 20260502120242 | 36 | 12 | 1.7 | 2.6 | 0.00 | 0.00 | 0.00 | 87 | 1014.7 |
| 20260502115740 | 35 | 94 | 4.3 | 7.0 | 0.00 | 0.00 | 0.00 | 86 | 1014.5 |
| 20260502115236 | 35 | 36 | 1.7 | 3.5 | 0.00 | 0.00 | 0.00 | 88 | 1014.6 |
| 20260502114732 | 35 | 348 | 2.6 | 5.2 | 0.00 | 0.00 | 0.00 | 88 | 1014.4 |
| 20260502114229 | 35 | 25 | 3.5 | 6.1 | 0.00 | 0.00 | 0.00 | 88 | 1014.4 |
| 20260502113726 | 35 | 44 | 3.5 | 5.2 | 0.00 | 0.00 | 0.00 | 88 | 1014.4 |
| 20260502113224 | 35 | 43 | 2.6 | 6.1 | 0.00 | 0.00 | 0.00 | 89 | 1014.4 |
| 20260502112722 | 35 | 324 | 1.7 | 2.6 | 0.00 | 0.00 | 0.00 | 91 | 1014.5 |
| 20260502112220 | 34 | 61 | 2.6 | 2.6 | 0.00 | 0.00 | 0.00 | 93 | 1014.3 |
| 20260502111716 | 33 | 64 | 1.7 | 2.6 | 0.00 | 0.00 | 0.00 | 94 | 1014.4 |
| 20260502111214 | 33 | 44 | 0.9 | 2.6 | 0.00 | 0.00 | 0.00 | 94 | 1014.4 |
| 20260502110712 | 33 | 21 | 1.7 | 1.7 | 0.00 | 0.00 | 0.00 | 94 | 1014.4 |
| 20260502110209 | 33 | 22 | 0.9 | 2.6 | 0.00 | 0.00 | 0.00 | 94 | 1014.3 |
| 20260502105707 | 33 | 23 | 1.7 | 2.6 | 0.00 | 0.00 | 0.00 | 94 | 1014.4 |
| 20260502105203 | 33 | 8 | 1.7 | 1.7 | 0.00 | 0.00 | 0.00 | 94 | 1014.3 |
| 20260502104700 | 33 | 0 | 1.7 | 1.7 | 0.00 | 0.00 | 0.00 | 93 | 1014.3 |
| 20260502104158 | 33 | 21 | 0.0 | 1.7 | 0.00 | 0.00 | 0.00 | 93 | 1014.3 |
| 20260502103655 | 33 | 25 | 1.7 | 2.6 | 0.00 | 0.00 | 0.00 | 93 | 1014.1 |
| 20260502103153 | 33 | 356 | 0.9 | 2.6 | 0.00 | 0.00 | 0.00 | 93 | 1014.4 |
| 20260502102650 | 33 | 355 | 1.7 | 2.6 | 0.00 | 0.00 | 0.00 | 92 | 1014.4 |
| 20260502102146 | 33 | 358 | 1.7 | 3.5 | 0.00 | 0.00 | 0.00 | 92 | 1014.4 |
| 20260502101644 | 33 | 344 | 2.6 | 6.1 | 0.00 | 0.00 | 0.00 | 91 | 1014.3 |
| 20260502101142 | 34 | 2 | 2.6 | 2.6 | 0.00 | 0.00 | 0.00 | 91 | 1014.5 |
| 20260502100641 | 34 | 351 | 3.5 | 5.2 | 0.00 | 0.00 | 0.00 | 91 | 1014.4 |
| 20260502100138 | 33 | 36 | 0.9 | 1.7 | 0.00 | 0.00 | 0.00 | 90 | 1014.3 |
| 20260502091113 | 35 | 310 | 1.7 | 2.6 | 0.00 | 0.00 | 0.00 | 86 | 1014.5 |
| 20260502090609 | 35 | 36 | 2.6 | 2.6 | 0.00 | 0.00 | 0.00 | 86 | 1014.7 |
| 20260502090107 | 35 | 54 | 1.7 | 3.5 | 0.00 | 0.00 | 0.00 | 86 | 1014.6 |
| 20260502071504 | 38 | 318 | 1.7 | 1.7 | 0.00 | 0.00 | 0.00 | 77 | 1014.5 |
| 20260502071002 | 38 | 334 | 0.0 | 2.6 | 0.00 | 0.00 | 0.00 | 75 | 1014.4 |
| 20260502070500 | 38 | 348 | 2.6 | 2.6 | 0.00 | 0.00 | 0.00 | 76 | 1014.4 |
| 20260502065958 | 38 | 5 | 0.0 | 0.9 | 0.00 | 0.00 | 0.00 | 77 | 1014.6 |
| 20260502065456 | 38 | 326 | 0.9 | 1.7 | 0.00 | 0.00 | 0.00 | 77 | 1014.5 |
| 20260502064954 | 38 | 357 | 0.9 | 2.6 | 0.00 | 0.00 | 0.00 | 77 | 1014.7 |
| 20260502064452 | 38 | 351 | 0.9 | 0.9 | 0.00 | 0.00 | 0.00 | 78 | 1014.8 |
| 20260502063948 | 38 | 8 | 0.9 | 3.5 | 0.00 | 0.00 | 0.00 | 77 | 1014.7 |
| 20260502063446 | 38 | 11 | 2.6 | 5.2 | 0.00 | 0.00 | 0.00 | 77 | 1014.6 |